Monticello, KY

2:37 AM EDT on April 25, 2017 (GMT -0400)
Wayne County

Weather History for KEKQ - October, 2012

Change the Weather History Date:

Sunday, October 7, 2012

  Actual Average Record
Temperature  
Mean Temperature 48 °F -  
Max Temperature 56 °F 70 °F 90 °F (2007)
Min Temperature 38 °F 46 °F 30 °F (1964)
Degree Days  
Heating Degree Days 18    
Moisture  
Dew Point 39 °F    
Average Humidity 72    
Maximum Humidity 100    
Minimum Humidity 46    
Precipitation  
Precipitation 0.00 in - - ()
Sea Level Pressure  
Sea Level Pressure 30.18 in    
Wind  
Wind Speed 3 mph (NNW)    
Max Wind Speed 9 mph    
Max Gust Speed -    
Visibility 10 miles    
Events Rain    
Averages and records for this station are not official NWS values.
T = Trace of Precipitation, MM = Missing Value Source: NWS Daily Summary

Daily Weather History Graph

Daily Weather History Graph

Search for Another Location

Airport or City:

Trip Planner

Search our weather history database for the weather conditions in past years. The results will help you decide how hot, cold, wet, or windy it might be!

Date:

Astronomy

Oct. 07, 2012 Rise Set
Actual Time 6:40 AM CDT 6:13 PM CDT
Civil Twilight 6:14 AM CDT 6:39 PM CDT
Nautical Twilight 5:44 AM CDT 7:09 PM CDT
Astronomical Twilight 5:14 AM CDT 7:39 PM CDT
Moon 11:29 PM CDT (10/7) 1:10 PM CDT (10/7)
Length of Visible Light 12h 24m
Length of Day
11h 33m
Waning Gibbous, 56% of the Moon is Illuminated
Oct 7
Waning Gibbous
Oct 8
Last Quarter
Oct 15
New
Oct 21
First Quarter
Oct 29
Full

Hourly Weather History & Observations

Time (CDT) Temp. Dew Point Humidity Pressure Visibility Wind Dir Wind Speed Gust Speed Precip Events Conditions
12:56 AM 48.9 °F 37.9 °F 66% 30.14 in 10.0 mi North 3.5 mph - N/A   Overcast
1:56 AM 48.9 °F 38.8 °F 68% 30.14 in 10.0 mi Calm Calm - 0.00 in Rain Light Rain
2:56 AM 47.8 °F 39.9 °F 74% 30.14 in 10.0 mi Calm Calm - 0.00 in   Overcast
3:56 AM 47.8 °F 39.9 °F 74% 30.12 in 10.0 mi North 5.8 mph - N/A   Mostly Cloudy
4:56 AM 46.9 °F 39.9 °F 77% 30.14 in 10.0 mi Calm Calm - 0.00 in   Mostly Cloudy
5:56 AM 46.9 °F 39.9 °F 77% 30.15 in 10.0 mi NNW 9.2 mph - N/A   Mostly Cloudy
6:56 AM 46.9 °F 39.9 °F 77% 30.15 in 10.0 mi North 5.8 mph - N/A   Overcast
7:56 AM 46.9 °F 41.0 °F 80% 30.17 in 10.0 mi Calm Calm - N/A   Overcast
8:56 AM 47.8 °F 41.0 °F 77% 30.19 in 10.0 mi NNW 4.6 mph - N/A   Mostly Cloudy
9:56 AM 48.9 °F 41.0 °F 74% 30.22 in 10.0 mi NNW 9.2 mph - N/A   Mostly Cloudy
10:56 AM 50.9 °F 41.0 °F 69% 30.23 in 10.0 mi NW 8.1 mph - N/A   Mostly Cloudy
11:56 AM 50.9 °F 38.8 °F 63% 30.23 in 10.0 mi North 8.1 mph - N/A   Partly Cloudy
12:56 PM 54.9 °F 38.8 °F 55% 30.21 in 10.0 mi Variable 4.6 mph - N/A   Mostly Cloudy
1:56 PM 55.9 °F 37.9 °F 51% 30.19 in 10.0 mi East 5.8 mph - N/A   Mostly Cloudy
2:56 PM 56.8 °F 36.9 °F 47% 30.18 in 10.0 mi WNW 6.9 mph - N/A   Partly Cloudy
3:56 PM 56.8 °F 36.0 °F 46% 30.17 in 10.0 mi Variable 4.6 mph - N/A   Clear
4:56 PM 55.9 °F 36.0 °F 47% 30.17 in 10.0 mi NNW 5.8 mph - N/A   Scattered Clouds
5:56 PM 54.0 °F 36.9 °F 52% 30.18 in 10.0 mi North 4.6 mph - N/A   Scattered Clouds
6:56 PM 45.9 °F 38.8 °F 76% 30.20 in 10.0 mi Calm Calm - N/A   Partly Cloudy
7:56 PM 41.9 °F 37.9 °F 86% 30.21 in 10.0 mi Calm Calm - N/A   Clear
8:56 PM 41.0 °F 39.9 °F 96% 30.21 in 10.0 mi Calm Calm - N/A   Clear
9:56 PM 41.0 °F 41.0 °F 100% 30.22 in 10.0 mi Calm Calm - N/A   Clear
10:56 PM 39.9 °F 39.9 °F 100% 30.21 in 10.0 mi Calm Calm - N/A   Clear
11:56 PM 38.8 °F 38.8 °F 100% 30.21 in 9.0 mi Calm Calm - N/A   Clear